ORBITAL FACTORY 2 (OF-2) (45113 NORAD) Tracking and Keplerian Element Data

This shows tracking and keplerian element data for the satellite.

Feedback or suggestion? Click here.




ElementValue
Catalog45113
NameORBITAL FACTORY 2 (OF-2)
Epoch Orbit4088
Epoch Day298.18489293
Epoch Year2020
RAAN101.4757
Inclination51.6423
Eccentricity0.0013146
Argument of Perigee159.1803
Mean Anonmoly200.9718
Mean Motion15.33867292
Decay Rate4.543E-05
L11 45113U 19071C 20298.18489293 .00004543 00000-0 14763-3 0 9997
L22 45113 51.6423 101.4757 0013146 159.1803 200.9718 15.33867292 40887

Live tracking and technical data element details for ORBITAL FACTORY 2 (OF-2) (NORAD 45113). ORBITAL FACTORY 2 (OF-2) can be tracked NOW for your location showing map with azimuth and elevation plus other details from your city location.

Track the satellite on the map from your city or location and see movement details for azimuth, elevation, latitude, longitude, range, height, and movement on the map or in text.







IsCatalogInMostPopularTable: catalog: 45113, numindb: 65
Update: records affected: 1



GetName: 45113 ORBITAL FACTORY 2 (OF-2)

Hit Count: updated at: Sun, 25 Oct 2020 07:18:29 GMT